Location: Foligno
(42.9600°N, 12.7050°E)
Time: 17:46:59
(UTC+02:00)

ISS - Pass Details

Date: 30 May 2020
Orbit: 417 x 420 km, 51.6° (Epoch: 26 May)

Event Time Altitude Azimuth Distance (km) Brightness Sun altitude
Rises 23:11:37 0° 296° (WNW) 2,365 0.9 -19.9°
Reaches altitude 10° 23:13:53 10° 284° (WNW) 1,498 -0.4 -20.1°
Enters shadow 23:16:11 26° 244° (WSW) 857 -2.2 -20.3°
